Regional Weather Roundup
Issued by NWS

Home | Current Version | Previous Version | Text Only | Print | Product List | Glossary Off
Versions: 1 2 3 4 5 6 7 8 9 10 11 12 13 14 15 16 17 18 19 20 21 22 23 24 25 26 27 28 29 30 31 32 33 34 35 36 37 38 39 40 41 42 43 44 45 46 47 48 49 50

753
ASUS43 KDTX 300110
RWRMI
MICHIGAN HOURLY REGIONAL WEATHER ROUNDUP
NATIONAL WEATHER SERVICE DETROIT/PONTIAC MI
900 PM EDT FRI JUL 29 2016

NOTE: "FAIR" INDICATES FEW OR NO CLOUDS BELOW 12,000 FEET WITH NO
SIGNIFICANT WEATHER AND/OR OBSTRUCTION TO VISIBILITY.

MIZ047>049-052>055-059>063-066>070-074>076-081>083-300200-
SOUTHEAST LOWER MICHIGAN

CITY           SKY/WX    TMP DP  RH WIND       PRES   REMARKS
ADRIAN         CLOUDY    74  66  76 E8        29.98R
ALMA           CLOUDY    68  61  77 NE9       30.03R
ANN ARBOR      CLOUDY    75  65  70 NE7       29.98R
BAD AXE        CLOUDY    66  57  71 NE7       30.03F
CARO           CLOUDY    67  57  68 CALM      30.01S
DETROIT CITY   CLOUDY    74  58  57 NE9       29.98R
DETROIT        CLOUDY    76  62  62 NE9       29.98R
FLINT          CLOUDY    74  55  51 NE14      30.01R
GROSSE ILE     CLOUDY    74  66  74 NE9       29.96R
HILLSDALE      CLOUDY    72  65  78 E6        29.98R
HOWELL         PTCLDY    73  54  52 NE7       30.00R

CITY           SKY/WX    TMP DP  RH WIND       PRES   REMARKS
JACKSON        CLOUDY    74  67  78 E8        29.98R
LAMBERTVILLE   CLOUDY    75  70  85 NE3       29.96S
LANSING        CLOUDY    71  56  58 NE10      30.00R
LAPEER         FAIR      69  55  61 NE5       30.01S
MASON          CLOUDY    73  56  56 NE6       29.99R
MONROE         MOCLDY    72  68  88 CALM      29.96R
MT. CLEMENS    MOCLDY    71  59  64 N8        29.96R
PONTIAC        CLOUDY    72  54  53 NE8       29.99R
PORT HOPE        N/A     70  60  70 NE14      30.01S
PORT HURON     CLOUDY    70  61  73 N6        29.99S
TRI CITIES     PTCLDY    68  60  75 NE10      30.03R
MIDLAND        FAIR      68  58  71 NE6       30.02S
TROY           MOCLDY    76  52  43 NE8       30.00S
SAGINAW HB     CLOUDY    68  57  68 NE10      30.01R
$$
MIZ043>046-050>051-056>058-064>065-071>073-077>080-300200-
SOUTHWEST LOWER MICHIGAN

CITY           SKY/WX    TMP DP  RH WIND       PRES   REMARKS
BATTLE CREEK   CLOUDY    71  62  73 NE9       29.97S
BENTON HARBOR  LGT RAIN  71  68  90 NE5       29.95F FOG
BIG RAPIDS     PTCLDY    70  60  70 E6        30.01S
COLDWATER      CLOUDY    74  66  76 E8        29.96S
FREMONT        FAIR      69  60  71 E6        30.00R
HOLLAND        CLOUDY    73  64  73 E6        29.98R
GRAND RAPIDS   CLOUDY    71  60  68 NE12      29.99S
IONIA          FAIR      68  57  67 NE10G16   29.99S
KALAMAZOO      PTCLDY    74  61  63 NE5       29.96S
LUDINGTON      PTCLDY    74  63  69 SE5       29.99S
MARSHALL       CLOUDY    73  64  72 CALM      29.97R
MOUNT PLEASANT CLOUDY    69  56  62 E9        30.02R
MUSKEGON       CLOUDY    72  60  66 E7        29.99R
SOUTH HAVEN    LGT RAIN  70  68  93 CALM      29.97R
$$
MIZ016>042-300200-
NORTHERN LOWER MICHIGAN

CITY           SKY/WX    TMP DP  RH WIND       PRES   REMARKS
ALPENA         CLEAR     66  55  67 SE5       30.06S
BEAVER ISLAND  CLEAR     69  55  59 E5        30.06R
BELLAIRE       CLEAR     73  50  44 NE6       30.02S
CADILLAC       CLOUDY    71  60  69 E7        30.03S
CHARLEVOIX     CLEAR     73  49  41 E9        30.07S
FRANKFORT      CLEAR     72  55  54 CALM      30.02R
GAYLORD        CLEAR     70  48  45 E5        30.06S
GRAYLING       CLEAR     69  48  46 E9        30.07R
HARBOR SPRINGS CLEAR     70  51  51 NE5       30.05R
HOUGHTON LAKE  CLOUDY    67  55  65 E8        30.06R
MANISTEE       CLOUDY    73  60  63 E3        30.00R
OSCODA         CLOUDY    66  55  68 N7        30.04S
PELLSTON       CLEAR     72  51  47 E5        30.06S
ROGERS CITY    CLEAR     67  54  63 NE3       30.07S
TRAVERSE CITY  CLOUDY    76  58  53 NE12      29.99R
$$
MIZ007>008-015-300200-
EASTERN UPPER MICHIGAN

CITY           SKY/WX    TMP DP  RH WIND       PRES   REMARKS
KINROSS        CLEAR     67  55  65 NW6       30.07R
MACKINAC ISLAN CLEAR     67  57  70 CALM      30.06S
NEWBERRY       PTCLDY    68  54  60 N6        30.07R
S. S. MARIE    CLEAR     70  55  59 NW8       30.05S
MUNISING         N/A     67  60  78 NE14      30.06S
$$
MIZ004>006-011>014-085-300200-
CENTRAL UPPER MICHIGAN

CITY           SKY/WX    TMP DP  RH WIND       PRES   REMARKS
MANISTIQUE     CLEAR     68  56  64 E5        30.06R
ESCANABA       CLEAR     72  54  53 SE6       30.04S
MENOMINEE      CLEAR    N/A N/A N/A NE5       30.05S
SAWYER-GWINN   CLEAR     66  52  59 NE6       30.08S
$$
MIZ001>003-009>011-084-300200-
WESTERN UPPER MICHIGAN

CITY           SKY/WX    TMP DP  RH WIND       PRES   REMARKS
IRON MOUNTAIN  MOCLDY    71  53  52 S8        30.05R
HOUGHTON       CLEAR     65  51  60 E3        30.08S
COPPER HARBOR    N/A     69  53  56 SE3       30.07S
IRONWOOD       CLEAR     66  57  72 NE5       30.05R
$$

ABBREVIATIONS USED IN REMARKS
   TC - TEMPERATURE IN CELSIUS
  WCI - WIND CHILL INDEX
   HX - HEAT INDEX
  VSB - VISIBILITY





USA.gov is the U.S. government's official web portal to all federal, state and local government web resources and services.